User: anonymous   Login
Location: Fort Wayne
(41.1310°N, 85.1290°W)
Time: 09:41:52
(UTC-04:00)
Language:

Cosmos 1980 - Orbit

View from above orbital plane
View from above orbital plane
View from above satellite
View from above satellite

Ground track
Ground track

The orbit data is extracted from the following two-line orbital elements,

1 19649U 88102A   15145.63738520  .00000303  00000-0  18253-3 0  9996
2 19649 071.0002 207.3522 0005068 356.4192 003.6893 14.14606457368005
Epoch (UTC): 25 May 2015 15:17:50
Eccentricity: 0.0005068
inclination: 71.0002°
perigee height: 840 km
apogee height: 847 km
right ascension of ascending node: 207.3522°
argument of perigee: 356.4192°
revolutions per day: 14.14606457
mean anomaly at epoch: 3.6893°
orbit number at epoch: 36800

The dashed part of the orbit path shows where the satellite is in the earth's shadow,  

DLR